Regional Weather Roundup
Issued by NWS Memphis, TN

Home | Current Version | Previous Version | Text Only | Print | Product List | Glossary On
Versions: 1 2 3 4 5 6 7 8 9 10 11 12 13 14 15 16 17 18 19 20 21 22 23 24 25 26 27 28 29 30 31 32 33 34 35 36 37 38 39 40 41 42 43 44 45 46 47 48 49 50
000
ASUS44 KMEG 171210
RWRMEG
MEMPHIS CWA HOURLY WEATHER ROUNDUP
NATIONAL WEATHER SERVICE MEMPHIS TN
600 AM CST SUN DEC 17 2017

...WEST TENNESSEE...

CITY           SKY/WX    TMP DP  RH WIND       PRES   REMARKS
MEMPHIS INTL   LGT RAIN  41  41 100 E8        30.15F FOG
6HR MIN TEMP:  41; 6HR MAX TEMP:  47; 6HR PCP:  0.65;

NWS MEMPHIS      N/A     41 N/A N/A MISG        N/A
JACKSON        LGT RAIN  40  39  97 E6        30.19S
6HR MIN TEMP:  40; 6HR MAX TEMP:  47; 6HR PCP:  0.25;

COVINGTON      CLOUDY    41  41 100 S6        30.18F FOG
SOMERVILLE     CLOUDY    41  39  93 SW5       30.21R FOG
BOLIVAR        CLOUDY    39  37  93 CALM      30.17F FOG
LEXINGTON      CLOUDY    39  37  93 CALM      30.20S FOG
SELMER         CLOUDY    39  37  93 NE5       30.16F
SAVANNAH       CLOUDY    39  37  93 CALM      30.18F
DYERSBURG      LGT RAIN  41  40  96 SE5       30.19S
6HR MIN TEMP:  41; 6HR MAX TEMP:  46;

UNION CITY     CLOUDY    41  37  87 S6        30.18S
PARIS          CLOUDY    41  37  87 S5        30.17F
HUNTINGDON     CLOUDY    41  37  87 S3        30.19S


...EASTERN ARKANSAS...

CITY           SKY/WX    TMP DP  RH WIND       PRES   REMARKS
JONESBORO      LGT RAIN  42  42 100 SE9       30.12S
6HR MIN TEMP:  42; 6HR MAX TEMP:  46; 6HR PCP:  0.40;

WEST MEMPHIS   LGT RAIN  41  50 100 E7        30.14F
6HR MIN TEMP:  41; 6HR MAX TEMP:  47; 6HR PCP:  0.86;

BATESVILLE     CLOUDY    42  42 100 E8        30.07F FOG
6HR MIN TEMP:  42; 6HR MAX TEMP:  46; 6HR PCP:  0.72;

NEWPORT        LGT RAIN  41  41 100 E8        30.10F
6HR MIN TEMP:  41; 6HR MAX TEMP:  45; 6HR PCP:  0.52;

WALNUT RIDGE   LGT RAIN  41  41 100 SE8       30.09F FOG
6HR MIN TEMP:  41; 6HR MAX TEMP:  45; 6HR PCP:  0.52;

BLYTHEVILLE    LGT RAIN  42  42 100 SE7       30.15F
6HR MIN TEMP:  42; 6HR MAX TEMP:  46;

SEARCY         CLOUDY    43  43 100 SE6       30.10F
6HR MIN TEMP:  43; 6HR MAX TEMP:  45; 6HR PCP:  0.55;

STUTTGART      CLOUDY    43  42  97 E8        30.10R
6HR MIN TEMP:  43; 6HR MAX TEMP:  45; 6HR PCP:  1.16;

PINE BLUFF     MOCLDY    42  41  96 E6        30.10R
6HR MIN TEMP:  42; 6HR MAX TEMP:  45; 6HR PCP:  1.10;

MONTICELLO     CLOUDY    43  40  89 E7        30.09R
6HR MIN TEMP:  43; 6HR MAX TEMP:  50; 6HR PCP:  1.09;



...NORTH MISSISSIPPI...

CITY           SKY/WX    TMP DP  RH WIND       PRES   REMARKS
TUPELO         HVY RAIN  40  38  93 W8        30.22R FOG     WCI  34
6HR MIN TEMP:  40; 6HR MAX TEMP:  45; 6HR PCP:  0.42;

BATESVILLE     LGT SNOW  40  38  92 E6        30.19F
6HR MIN TEMP:  40; 6HR MAX TEMP:  45; 6HR PCP:  5.36;

TUNICA         LGT RAIN N/A N/A N/A E9        30.15F
CLARKSDALE     CLOUDY    43  43 100 E10       30.09F
CORINTH        LGT RAIN  41  37  87 SE3       30.17F
GREENWOOD      LGT RAIN  42  41  96 NE10      30.16F FOG
6HR MIN TEMP:  42; 6HR MAX TEMP:  50; 6HR PCP:  0.77;

COLUMBUS       LGT RAIN  43  41  93 CALM      30.18R
6HR MIN TEMP:  35; 6HR MAX TEMP:  47; 6HR PCP:  0.29;

STARKVILLE     LGT RAIN  43  41  93 W3        30.19R
GOLDEN TRIANGL LGT RAIN  43  40  89 E6        30.17F
6HR MIN TEMP:  42; 6HR MAX TEMP:  48; 6HR PCP:  0.24;



...SOUTHEAST MISSOURI...

CITY           SKY/WX    TMP DP  RH WIND       PRES   REMARKS
KENNETT        LGT RAIN  43  41  93 SE7       30.12F
MALDEN         LGT RAIN  43  41  93 SE6       30.13F
WEST PLAINS    LGT RAIN  40  39  97 SE6       30.05R FOG
6HR MIN TEMP:  40; 6HR MAX TEMP:  45; 6HR PCP:  0.15;

POPLAR BLUFF   LGT RAIN  42  41  96 S6        30.12F FOG
6HR MIN TEMP:  41; 6HR MAX TEMP:  45; 6HR PCP:  0.13;

CAPE GIRARDEAU LGT RAIN  40  37  89 SE9       30.10F WCI  34
6HR MIN TEMP:  40; 6HR MAX TEMP:  45; 6HR PCP:  0.03;



...NORTHWEST ALABAMA...

CITY           SKY/WX    TMP DP  RH WIND       PRES   REMARKS
MUSCLE SHOALS  LGT RAIN  42  34  73 CALM      30.25R
6HR MIN TEMP:  35; 6HR MAX TEMP:  43; 6HR PCP:  0.01;



...MIDDLE TENNESSEE...

CITY           SKY/WX    TMP DP  RH WIND       PRES   REMARKS
NASHVILLE      LGT RAIN  40  34  79 CALM      30.25R
6HR MIN TEMP:  40; 6HR MAX TEMP:  43; 6HR PCP:  0.01;

CLARKSVILLE    CLOUDY    41  32  70 SE5       30.21R
6HR MIN TEMP:  39; 6HR MAX TEMP:  43; 6HR PCP: TRACE;

COLUMBIA       MOCLDY    39  36  87 CALM      30.24R


...WESTERN KENTUCKY...

CITY           SKY/WX    TMP DP  RH WIND       PRES   REMARKS
PADUCAH        LGT RAIN  42  35  76 S3        30.15F
6HR MIN TEMP:  42; 6HR MAX TEMP:  45; 6HR PCP:  0.02;

FORT CAMPBELL  DRIZZLE   43  32  65 SE3       30.19R
6HR MIN TEMP:  41; 6HR MAX TEMP:  44; 6HR PCP: TRACE;



...CENTRAL ARKANSAS...

CITY           SKY/WX    TMP DP  RH WIND       PRES   REMARKS
LITTLE ROCK    CLOUDY    42  42 100 SE10      30.08R FOG
6HR MIN TEMP:  42; 6HR MAX TEMP:  44; 6HR PCP:  1.00;



SKY/WX REPORTED AS FAIR MEANS FEW OR NO CLOUDS BELOW
12 THOUSAND FEET.




USA.gov is the U.S. government's official web portal to all federal, state and local government web resources and services.